Monticello, KY

1:26 AM EST on January 23, 2018 (GMT -0500)
Wayne County

Weather History for KEKQ - February, 2012

Change the Weather History Date:

Wednesday, February 22, 2012

  Actual Average Record
Temperature  
Mean Temperature 43 °F -  
Max Temperature 59 °F 55 °F 73 °F (1980)
Min Temperature 27 °F 30 °F -3 °F (1963)
Degree Days  
Heating Degree Days 22    
Moisture  
Dew Point 45 °F    
Average Humidity 85    
Maximum Humidity 100    
Minimum Humidity 52    
Precipitation  
Precipitation 0.01 in - - ()
Sea Level Pressure  
Sea Level Pressure 29.70 in    
Wind  
Wind Speed 8 mph (SW)    
Max Wind Speed 23 mph    
Max Gust Speed -    
Visibility 9 miles    
Events Rain    
Averages and records for this station are not official NWS values.
T = Trace of Precipitation, MM = Missing Value Source: NWS Daily Summary

Daily Weather History Graph

Daily Weather History Graph

Search for Another Location

Airport or City:

Trip Planner

Search our weather history database for the weather conditions in past years. The results will help you decide how hot, cold, wet, or windy it might be!

Date:

Astronomy

Feb. 22, 2012 Rise Set
Actual Time 6:20 AM CST 5:26 PM CST
Civil Twilight 5:53 AM CST 5:52 PM CST
Nautical Twilight 5:23 AM CST 6:22 PM CST
Astronomical Twilight 4:53 AM CST 6:52 PM CST
Moon 6:20 AM CST (2/22) 6:29 PM CST (2/22)
Length of Visible Light 11h 58m
Length of Day
11h 06m
New Moon, 1% of the Moon is Illuminated
Feb 22
New Moon
Feb 29
First Quarter
Mar 8
Full
Mar 14
Last Quarter
Mar 22
New

Hourly Weather History & Observations

Time (CST) Temp. Windchill Dew Point Humidity Pressure Visibility Wind Dir Wind Speed Gust Speed Precip Events Conditions
12:56 AM 29.1 °F - 29.1 °F 100% 29.99 in 10.0 mi Calm Calm - N/A   Clear
1:56 AM 27.1 °F - 26.1 °F 96% 29.97 in 10.0 mi Calm Calm - N/A   Clear
2:56 AM 27.1 °F - 25.2 °F 92% 29.94 in 10.0 mi Calm Calm - N/A   Clear
3:56 AM 29.1 °F - 28.0 °F 96% 29.92 in 10.0 mi Calm Calm - N/A   Clear
4:56 AM 32.9 °F - 31.1 °F 93% 29.89 in 10.0 mi Calm Calm - N/A   Clear
6:56 AM 39.9 °F 35.1 °F 29.1 °F 65% 29.84 in 10.0 mi South 6.9 mph - N/A   Mostly Cloudy
7:56 AM 45.9 °F 41.7 °F 29.1 °F 52% 29.82 in 10.0 mi SSE 8.1 mph - N/A   Partly Cloudy
8:56 AM 45.9 °F 38.3 °F 41.9 °F 86% 29.84 in 2.0 mi South 19.6 mph - 0.01 in Rain Light Rain
9:08 AM 46.4 °F 40.1 °F 42.8 °F 87% 29.81 in 10.0 mi South 15.0 mph - 0.00 in Rain Light Rain
9:56 AM 50.0 °F - 45.0 °F 83% 29.81 in 10.0 mi SW 15.0 mph - 0.00 in   Mostly Cloudy
10:56 AM 54.9 °F - 46.9 °F 75% 29.78 in 10.0 mi SW 18.4 mph - N/A   Mostly Cloudy
11:27 AM 53.6 °F - 46.4 °F 77% 29.75 in 10.0 mi SW 15.0 mph - N/A   Overcast
11:56 AM 54.0 °F - 46.9 °F 77% 29.75 in 10.0 mi SSW 17.3 mph - N/A   Overcast
12:56 PM 57.9 °F - 48.9 °F 72% 29.71 in 10.0 mi SW 19.6 mph - N/A   Mostly Cloudy
1:23 PM 57.2 °F - 48.2 °F 72% 29.67 in 10.0 mi SW 23.0 mph - N/A   Mostly Cloudy
1:56 PM 59.0 °F - 47.8 °F 66% 29.68 in 10.0 mi SW 16.1 mph - N/A   Mostly Cloudy
2:15 PM 57.2 °F - 48.2 °F 72% 29.65 in 10.0 mi SW 19.6 mph - N/A   Mostly Cloudy
2:24 PM 57.2 °F - 48.2 °F 72% 29.65 in 10.0 mi SW 16.1 mph - N/A   Scattered Clouds
2:40 PM 57.2 °F - 46.4 °F 67% 29.64 in 10.0 mi WSW 16.1 mph - N/A   Mostly Cloudy
2:48 PM 57.2 °F - 48.2 °F 72% 29.63 in 10.0 mi SW 11.5 mph - N/A   Mostly Cloudy
2:56 PM 57.9 °F - 47.8 °F 69% 29.66 in 10.0 mi WSW 13.8 mph - N/A   Mostly Cloudy
3:14 PM 57.2 °F - 48.2 °F 72% 29.63 in 10.0 mi SW 9.2 mph - N/A   Mostly Cloudy
3:56 PM 52.9 °F - 50.9 °F 93% 29.66 in 3.0 mi SW 9.2 mph - 0.00 in Rain Light Rain
4:28 PM 53.6 °F - 51.8 °F 94% 29.61 in 5.0 mi South 6.9 mph - 0.00 in Rain Light Rain
4:56 PM 52.0 °F - 50.9 °F 96% 29.61 in 10.0 mi WSW 6.9 mph - 0.00 in   Scattered Clouds
5:23 PM 51.8 °F - 51.8 °F 100% 29.57 in 10.0 mi South 8.1 mph - N/A   Mostly Cloudy
5:34 PM 51.8 °F - 51.8 °F 100% 29.57 in 10.0 mi SSW 6.9 mph - N/A   Mostly Cloudy
5:56 PM 52.0 °F - 50.9 °F 96% 29.60 in 10.0 mi SW 9.2 mph - N/A   Scattered Clouds
6:56 PM 52.0 °F - 50.0 °F 93% 29.61 in 10.0 mi SW 11.5 mph - N/A   Clear
7:56 PM 50.0 °F - 48.9 °F 96% 29.61 in 9.0 mi SW 8.1 mph - N/A   Clear
8:33 PM 51.8 °F - 50.0 °F 94% 29.58 in 7.0 mi South 3.5 mph - N/A   Mostly Cloudy
8:56 PM 52.9 °F - 50.9 °F 93% 29.61 in 9.0 mi SSW 8.1 mph - N/A   Overcast
9:04 PM 53.6 °F - 51.8 °F 94% 29.59 in 9.0 mi SSW 6.9 mph - N/A   Overcast
9:56 PM 54.0 °F - 52.9 °F 96% 29.60 in 7.0 mi SW 9.2 mph - N/A   Overcast
10:06 PM 53.6 °F - 53.6 °F 100% 29.59 in 9.0 mi SW 9.2 mph - N/A   Overcast
10:56 PM 54.0 °F - 52.9 °F 96% 29.59 in 9.0 mi SW 9.2 mph - N/A   Mostly Cloudy
11:11 PM 55.4 °F - 53.6 °F 94% 29.57 in 9.0 mi SW 9.2 mph - N/A   Overcast
11:56 PM 54.9 °F - 52.9 °F 93% 29.59 in 10.0 mi SW 6.9 mph - N/A   Overcast